www.pogodaiklimat.ru

Погода и климат >> Архив погоды >> Молдова >> Кишинев


АРХИВ ПОГОДЫ в Кишиневе

Время (UTC), дата Ветер
(напр.,м/с)
 
Видим.   Явления Облачность Т
(С)
Тd
(С)
f
(%)
Тe
(С)
Тes
(С)
Комфортность P
(гПа)
Po
(гПа)
Тmin
(С)
Tmax
(С)
R
(мм)
S
(см)
18 20.03 С 2 20 км 10/10 600 м
[Sc]
+8.6 -2.1 47 +7 +7 тепло 1010.7 990.2 +10.8
21 20.03 С 2 20 км 10/10 600 м
[Sc]
+7.3 +1.2 65 +5 +5 тепло 1011.8 991.2
00 21.03 СЗ 2 20 км 10/6 600 м
[Sc Ac trans Ci fib]
+6.0 +1.9 75 +4 +4 по сезону 1012.7 992.0
03 21.03 СЗ 2 20 км 3/0
[Ci fib]
+4.1 +2.0 86 +1 +1 по сезону 1013.4 992.5
06 21.03 штиль 0 20 км 4/0
[Ci fib]
+5.3 +3.0 85 +4 +8 тепло 1014.5 993.7 +3.3
09 21.03 СЗ 1 20 км 10/0
[Cs]
+11.6 +1.3 49 +12 +21 тепло 1014.6 994.2
12 21.03 ЮЗ 2 50 км 10/6 600 м
[Cu hum Ci fib]
+15.5 +0.9 37 +16 +18 тепло 1013.5 993.4
15 21.03 ЮВ 2 50 км 9/5 600 м
[Cu hum Ci fib]
+15.6 +1.0 37 +16 +16 тепло 1013.3 993.2
18 21.03 В 3 20 км ясно +12.0 +0.7 46 +11 +11 тепло 1015.0 994.6 +16.7
21 21.03 ЮВ 1 20 км 3/0
[Ci fib]
+8.0 +1.2 62 +8 +8 тепло 1016.7 996.0
00 22.03 ЮВ 2 20 км ясно +6.0 +1.1 71 +4 +4 по сезону 1017.8 996.9
03 22.03 Ю 1 20 км ясно +4.5 +1.9 83 +3 +3 по сезону 1018.0 997.0
06 22.03 ЮВ 3 20 км 3/0
[Ci fib]
+7.5 +2.8 72 +5 +7 тепло 1018.8 998.0 +3.9
09 22.03 Ю 5 20 км 3/0
[Ci fib]
+14.8 +3.0 45 +14 +19 тепло 1018.7 998.5
12 22.03 Ю 6 20 км 9/0
[Cs]
+17.0 +3.3 40 +16 +19 тепло 1017.5 997.4
15 22.03 Ю 5 20 км 8/0
[Ac lent Ci]
+16.5 +3.2 41 +16 +16 тепло 1017.1 997.0
18 22.03 ЮВ 3 20 км 6/0
[Ac lent Ci fib]
+10.0 +0.9 53 +8 +8 тепло 1018.8 998.2 +17.7
21 22.03 Ю 4 20 км 8/0
[Cs]
+7.0 +1.1 66 +4 +4 по сезону 1019.8 999.0
00 23.03 Ю 3 20 км 3/0
[Ci fib]
+4.7 -0.7 68 +1 +1 по сезону 1020.2 999.2
03 23.03 Ю 1 20 км 6/0
[Cs]
+3.9 +0.6 79 +3 +3 по сезону 1021.1 1000.0
06 23.03 Ю 3 20 км 4/1 600 м
[Cu hum Ci fib]
+5.9 +1.4 73 +3 +5 по сезону 1022.2 1001.2 +3.0
09 23.03 Ю 4 20 км 5/0
[Ac trans Ci fib]
+12.6 -1.0 39 +11 +16 тепло 1022.4 1001.9
12 23.03 Ю 5 50 км 4/0
[Ac trans Ci fib]
+17.2 -1.5 28 +17 +20 тепло 1021.4 1001.3
15 23.03 ЮЗ 3 20 км 3/0
[Ci fib]
+17.6 -3.2 24 +18 +18 тепло 1021.3 1001.2
18 23.03 Ю 2 20 км 4/0
[Ci fib]
+11.7 -0.5 43 +11 +11 тепло 1022.7 1002.2 +18.4
21 23.03 ЮЗ 4 20 км 3/0
[Ci fib]
+8.1 -2.0 49 +5 +5 по сезону 1023.3 1002.5
00 24.03 Ю 3 20 км 3/0
[Ac trans Ci fib]
+5.5 -1.4 61 +3 +3 по сезону 1023.4 1002.4
03 24.03 Ю 4 20 км 4/0
[Ci fib]
+4.9 -2.4 59 +1 +1 по сезону 1021.7 1000.7
06 24.03 Ю 4 20 км 10/5 600 м
[Sc Ac trans Ci fib]
+7.7 -2.3 49 +5 +5 тепло 1022.5 1001.7 +4.3
09 24.03 ЮЗ 6 20 км 9/4 600 м
[Sc Ac trans Ci fib]
+13.6 -1.6 35 +12 +13 тепло 1021.0 1000.6
12 24.03 З 3 20 км 8/0
[Ac trans Ci]
+18.4 +1.0 31 +19 +24 тепло 1019.5 999.5
15 24.03 З 3 20 км 10/8 600 м
[Sc Ac trans]
+19.3 +2.6 33 +20 +20 тепло 1018.4 998.5
18 24.03 СЗ 6
{14}
20 км {ливн. осадки} 9/8 600 м
[Cb calv Ac trans]
+13.5 +7.9 69 +11 +11 тепло 1020.6 1000.3 +20.4 0.1
21 24.03 СЗ 6
{13}
10 км в посл. час ливневой дождь 10/8 600 м
[Cb calv Ac trans]
+8.5 +6.1 85 +5 +5 по сезону 1022.8 1002.0
00 25.03 СЗ 6 10 км {ливн. осадки} 10/8 600 м
[Cb calv Ac trans]
+7.4 +3.9 78 +3 +3 по сезону 1023.2 1003.1 -0.7
03 25.03 С 5 20 км 6/4 600 м
[Sc Ac trans]
+5.9 +1.8 75 +2 +2 по сезону 1024.0 1003.0
06 25.03 С 3 20 км 4/0
[Ac trans Ci fib]
+6.2 +1.9 74 +3 +5 по сезону 1024.4 1003.4 +4.7 2
09 25.03 СЗ 4 20 км 8/4 600 м
[Cu hum Ac trans Ci fib]
+10.5 -3.9 36 +9 +11 тепло 1023.3 1002.6
12 25.03 СЗ 4 20 км 10/9 600 м
[Cu hum Cs]
+12.1 -5.4 29 +11 +11 тепло 1020.7 1000.2
15 25.03 С 5 20 км 10/6 600 м
[Cu hum Ci fib]
+11.1 -5.8 30 +9 +9 по сезону 1018.1 997.6
18 25.03 З 2 20 км 6/0
[Ac trans]
+8.0 -4.4 41 +7 +7 по сезону 1017.4 996.7 +12.9
21 25.03 СЗ 2 20 км 9/0
[Ac trans]
+7.1 -1.1 56 +5 +5 по сезону 1015.9 995.2
00 26.03 ЮЗ 3 20 км слабый дождь 9/9 600 м
[Sc]
+5.7 -0.2 66 +3 +3 по сезону 1014.5 993.7
03 26.03 штиль 0 20 км слабый дождь 10/10 600 м
[Sc]
+4.9 +1.9 81 +4 +4 по сезону 1012.7 991.9
06 26.03 С 3 10 км слабый дождь 10/0 600 м
[As op]
+3.2 +1.4 88 -1 -0 по сезону 1013.2 992.2 +3.2 1
09 26.03 С 4 10 км в посл. час дождь 10/10 600 м
[Sc As op]
+4.6 +1.1 78 +1 +1 прохладно 1014.4 993.5
12 26.03 С 5 20 км {дождь} 10/10 600 м
[Cb calv]
+5.0 -0.6 67 +1 +1 холодно 1015.3 994.4
15 26.03 СЗ 4 20 км 10/10 600 м
[Cb calv]
+4.0 0.0 75 -0 -0 холодно 1016.7 995.7
18 26.03 С 3 20 км 10/10 600 м
[Sc]
+3.7 +0.7 81 0 0 холодно 1019.4 998.3 +5.2 0.0
21 26.03 С 5 20 км 4/0
[Ac lent Ci fib]
+3.1 +0.2 81 -2 -2 холодно 1021.3 1000.2
00 27.03 С 5 20 км ясно +2.2 -1.1 79 -3 -3 прохладно 1021.9 1000.7
03 27.03 СЗ 5 20 км 3/0
[Ci fib]
+1.2 -1.4 83 -5 -5 холодно 1021.5 1000.2
06 27.03 З 5 20 км 5/0
[Ac lent]
+2.9 -1.5 73 -2 -1 прохладно 1021.1 999.9 +0.9
09 27.03 СЗ 5
{12}
20 км 10/6 600 м
[Sc Ac trans]
+6.2 -1.4 58 +2 +3 прохладно 1019.7 998.8
12 27.03 СЗ 9
{14}
20 км 4/1 600 м
[Cu hum Ac lent]
+11.1 -1.0 43 +8 +8 по сезону 1016.5 996.0
15 27.03 СЗ 7
{15}
20 км 8/4 600 м
[Sc Ac trans]
+13.0 +0.4 42 +11 +11 тепло 1015.5 995.2

 

Местоположение метеостанции Кишинев (Молдова): широта 47.02 долгота 28.98 высота над уровнем моря 173 м.

В архиве по умолчанию представлена погода в Кишиневе за последнюю неделю. Архивные данные за месяц целиком и за предыдущие месяцы, начиная с января 2011 года, Вы можете получить, выбрав интересующий диапазон дат из раскрывающегося списка и нажав кнопку "Ввод!".

Внимание! Время в таблицах - всемирное. Для получения местного времени необходимо прибавить поправку, которая в Кишиневе равна 2 ч.

Смотрите также архив погоды в соседних городах и на ближайших метеорологических станциях:

Погода в Дубоссарах (Молдова) (29 км)
Погода в Тирасполе (Молдова) (49 км)
Погода в Бравичах (Молдова) (57 км)
Погода в Штефан Водэ (Молдова) (67 км)
Погода в Корнестах (Молдова) (76 км)
Погода в Затишье (Одесская область, Украина) (76 км)
Погода в Леове (Молдова) (80 км)
Погода в Заставе (Одесская область, Украина) (81 км)
Погода в Рыбнице (Молдова) (83 км)
Погода в Комрате (Молдова) (84 км)

Пояснения к столбцам:

Ветер - указаны скорость ветра в м/с - средняя за 10 мин, порывы в срок и между сроками (в фигурных скобках) и направление, откуда дует ветер: С - северный, СВ - северо-восточный, В - восточный, ЮВ - юго-восточный, Ю - южный, ЮЗ - юго-западный, З - западный, СЗ - северо-западный.
Видимость - горизонтальная дальность видимости в метрах или километрах. При видимости от 1 до 10 км при отсутствии осадков обычно наблюдается дымка, при ухудшении видимости до 1 км и менее - туман. В сухую погоду видимость может ухудшаться дымом, пылью или мглою.
Явления - указаны атмосферные явления, наблюдавшиеся в срок или в последний час перед сроком; фигурными скобками обозначены явления, наблюдавшиеся между сроками (за 1-3 часа до срока); квадратными скобками обозначены град или гололедные отложения с указанием их диаметра в мм.
Облачность - указаны через наклонную черту общая и нижняя облачность в баллах и высота нижней границы облаков в метрах; квадратными скобками обозначены формы облаков: Ci - перистые, Cs - перисто-слоистые, Cc - перисто-кучевые, Ac - высококучевые, As - высокослоистые, Sc - слоисто-кучевые, Ns - слоисто-дождевые, Cu - кучевые, Cb - кучево-дождевые. Подробнее классификацию облаков см. в Атласе облаков (PDF).
T - Температура воздуха - температура, измеренная на высоте 2 м над землей.
Td - Температура точки росы - температура, при понижении до которой содержащийся в воздухе водяной пар достигнет насыщения.
f - Относительная влажность воздуха - влажноcть воздуха, измеренная на высоте 2 м над землей.
Te - Эффективная температура - температура, которую ощущает одетый по сезону человек в тени. Характеристика душности погоды. При расчете учитывается влияние влажности воздуха и скорости ветра на теплоощущения человека.
Tes - Эффективная температура на солнце - температура, которую ощущает человек, с поправкой на солнечный нагрев. Характеристика знойности погоды. Зависит от высоты солнца над горизонтом, облачности и скорости ветра. Ночью, в пасмурную погоду, а также при ветре 12 м/с и более поправка равна нулю.
P - Атмосферное давление - приведенное к уровню моря атмосферное давление.
Po - Атмосферное давление - измеренное на уровне метеостанции атмосферное давление.
Tmin - Минимальная температура - минимум температуры воздуха на высоте 2 м над землей.
Tmax - Максимальная температура - максимум температуры воздуха на высоте 2 м над землей.
R - Количество осадков - Количество выпавших осадков, мм. При наведении курсора мыши на число - период времени, за который выпало указанное количество осадков.
S - Снежный покров - Высота снежного покрова, см. При наведении курсора мыши на число - состояние снежного покрова и степень покрытия местности в баллах.